Regional Weather Roundup
Issued by NWS Upton, NY

Home | Current Version | Previous Version | Text Only | Print | Product List | Glossary On
Versions: 1 2 3 4 5 6 7 8 9 10 11 12 13 14 15 16 17 18 19 20 21 22 23 24 25 26 27 28 29 30 31 32 33 34 35 36 37 38 39 40 41
000
ASUS41 KOKX 272105
RWROKX

REGIONAL WEATHER ROUNDUP
NATIONAL WEATHER SERVICE NEW YORK NY
400 PM EST SAT DEC 27 2014

NOTE: "FAIR" INDICATES FEW OR NO CLOUDS BELOW 12,000 FEET WITH NO
SIGNIFICANT WEATHER AND/OR OBSTRUCTIONS TO VISIBILITY.

NYZ071-072-176-178-NJZ106-104-272200-
NEW YORK CITY METRO AREA


CITY           SKY/WX    TMP DP  RH WIND       PRES   REMARKS
CENTRAL PARK   CLEAR     54  32  43 SW5       30.19R
LAGUARDIA APRT MOCLDY    53  32  44 SW8       30.17R
KENNEDY INTL   MOCLDY    48  37  65 S6        30.20R
NEWARK/LIBERTY MOCLDY    54  34  46 SW7       30.17R
BRNX BOT. GARD   N/A     54  32  43 SW3       30.20R
TETERBORO      CLEAR     53  35  50 S6        30.16R
$$

NYZ177-179-078>081-272200-
LONG ISLAND NEW YORK

CITY           SKY/WX    TMP DP  RH WIND       PRES   REMARKS
FARMINGDALE    CLEAR     49  35  58 SW7       30.18R
ISLIP          MOCLDY    48  33  56 SW6       30.16S
SHIRLEY        CLEAR     48  32  53 S6        30.18S
WESTHAMPTON    CLEAR     47  34  60 S6        30.18F
MONTAUK POINT    N/A     48  38  68 SW5       30.19S
$$

NYZ052-065-067-272200-
HUDSON VALLEY

CITY           SKY/WX    TMP DP  RH WIND       PRES   REMARKS
WHITE PLAINS   CLEAR     51  33  50 W3        30.15R
NEWBURGH       PTCLDY    50  37  62 CALM      30.15F
MONTGOMERY     CLEAR     50  35  56 S6        30.13F
POUGHKEEPSIE   PTCLDY    52  34  50 SW5       30.14F
ALBANY         PTCLDY    49  33  54 S8        30.10F
$$

NJZ001-105-106-008-010-013-015-019>022-104-272200-
NEW JERSEY

CITY           SKY/WX    TMP DP  RH WIND       PRES   REMARKS
NEWARK/LIBERTY MOCLDY    54  34  46 SW7       30.17R
TETERBORO      CLEAR     53  35  50 S6        30.16R
CALDWELL       CLEAR     54  33  45 CALM      30.17R
MORRISTOWN     PTCLDY    55  36  47 SW7       30.17R
SOMERVILLE     CLEAR     55  31  39 CALM      30.15S
SUSSEX         CLEAR     52  35  52 CALM      30.15S
ANDOVER        NOT AVBL
TRENTON        CLEAR     55  31  39 W6        30.17S
MILLVILLE      PTCLDY    50  40  68 S3        30.19F
ATLANTIC CITY  CLEAR     50  41  71 S6        30.21R
WRIGHTSTOWN    CLEAR     53  33  45 SW6       30.17S
TOMS RIVER     CLEAR     54  34  47 S5        30.20R
BELMAR         CLEAR     54  32  43 SW8       30.19R
$$

PAZ047>061-062-071-272200-
EASTERN PENNSYLVANIA

CITY           SKY/WX    TMP DP  RH WIND       PRES   REMARKS
PHILADELPHIA   MOCLDY    55  32  41 S7        30.19F
ALLENTOWN      CLEAR     54  34  46 SW8       30.16R
SCRANTON       CLEAR     51  32  48 SW5       30.13S
$$

CTZ002-004>006-009-010-012-RIZ004-006-007-MAZ004-011-015-272200-
SOUTHERN NEW ENGLAND
 IN CT

CITY           SKY/WX    TMP DP  RH WIND       PRES   REMARKS
BRADLEY INTL   PTCLDY    51  32  48 W7        30.14S
HARTFORD       CLEAR     52  32  46 SW12      30.15S
DANBURY        PTCLDY    50  32  50 VRB5      30.16F
WTRBRY/OXFORD  CLEAR     52  34  50 W5        30.15S
BRIDGEPORT     CLEAR     49  36  61 S5        30.17S
MERIDEN        CLEAR     49  32  52 S7        30.15F
NEW HAVEN      PTCLDY    51  33  50 S5        30.16F
CHESTER        FAIR      48  32  53 CALM      30.16S
GROTON         CLEAR     45  36  70 SW8       30.16F
WILLIMANTIC    PTCLDY    51  32  48 SW3       30.14F

 IN RI

CITY           SKY/WX    TMP DP  RH WIND       PRES   REMARKS
PROVIDENCE     MOCLDY    51  33  50 W7        30.15F
BLOCK ISLAND   CLEAR     46  37  71 SW9       30.17S
WESTERLY       PTCLDY    47  37  68 SW6       30.17F

 IN MA

CITY           SKY/WX    TMP DP  RH WIND       PRES   REMARKS
BOSTON         PTCLDY    50  33  52 W9        30.13S
WORCESTER      CLEAR     44  32  62 W8        30.12F
WESTFIELD      CLEAR     50  33  52 SW7       30.14S
PROVINCETOWN   CLEAR     46  30  53 S5        30.14S
NANTUCKET      CLEAR     46  40  79 SW9       30.17S
$$

ANZ330-335-338-340-345-350-353-355-272200-
COASTAL MARINE OBSERVATIONS


STATION/POSITION TIME  SKY/WX   TEMP    WIND        PRES    VSBY  WAVE
                                AIR SEA DIR/SP/G                  HT/PER
                 (UTC)          (F)     (DEG/KT/KT) (MB)    (MI)  (FT/S)
NY HARB ENTRANCE 2100            47 45  190/  8/ 10 1022.2          3/14
4S FIRE IS       2100               47                N/A           3/14
20S FIRE ISLAND  2000            48 49              1022.8          3/15
23SW MTP         2100                                 N/A           3/14
HUDSON CANYON    2100            51 55  250/ 10/ 12 1022.8          4/15
EXECUTION ROCKS  2100            56 42  190/  4/  4   N/A
WESTERN LI SOUND 2100            52     230/  2/  2   N/A           0
CENTRAL LI SOUND 2000            45 44  180/  4/  6   N/A           0
EASTERN LI SOUND NOT AVBL
ROBBINS REEF     2100            47                 1020.6
$$


>>>>>>>>>>>>>>>>>>>>>>>>>>>> KEY <<<<<<<<<<<<<<<<<<<<<<<<<<<
>                                                          <
>     SKY/WX - SKY CONDITION/PRESENT WEATHER               <
>     TMP    - TEMPERATURE IN FAHRENHEIT                   <
>     DP     - DEWPOINT IN FAHRENHEIT                      <
>     RH     - RELATIVE HUMIDITY IN PERCENT                <
>     WIND   - DIRECTION AND SPEED IN MPH                  <
>     PRES   - MEAN SEA LEVEL PRESSURE IN INCHES OF HG     <
>     WCI    - WIND CHILL INDEX                            <
>     VSB    - VISIBILITY IN MILES                         <
>     HX     - HEAT INDEX                                  <
>     TC     - TEMPERATURE IN CELSIUS                      <
>     VRB    - VARIABLE WIND DIRECTION                     <
>                                                          <
>>>>>>>>>>>>>>>>>>>>>>>>>>>> KEY <<<<<<<<<<<<<<<<<<<<<<<<<<<




USA.gov is the U.S. government's official web portal to all federal, state and local government web resources and services.